Flag Weather past 2 weeks in Marburg, Hesse, Germany

Now
36 °F

Fog.


Feels Like: 32 °F
Forecast: 32 / 40 °F
Wind: 5 mph from Northeast

Location: Giessen

Current Time: Nov 29, 2014 at 1:42:37 AM

Latest Report: Nov 29, 2014 at 1:00 AM


Visibility: 4 mi

Pressure: 30.01 "Hg

Humidity: 95%

Dew point: 35 °F

Location of MarburgLocation

Historic Weather in Marburg — Graph

°F

Marburg temperature yesterday

Maximum temperature yesterday: 39 °F (at 3:00 PM)
Minimum temperature yesterday: 33 °F (at 3:00 AM)
Average temperature yesterday: 37 °F

Past Weeks' High & Low Weather Summary

 TemperatureHumidityPressure
High52 °F (Nov 14, 3:00 PM)100% (Nov 15, 2:00 AM)30.39 "Hg (Nov 15, 2:00 AM)
Low29 °F (Nov 25, 4:00 AM)70% (Nov 21, 1:00 PM)29.50 "Hg (Nov 16, 4:00 AM)
Average42 °F93%30.00 "Hg
* Reported Midnight between Nov 13 and Nov 14 — Midnight between Nov 28 and Nov 29, Marburg, Weather by CustomWeather, © 2014

Note: Actual official high and low records may vary slightly from our data, if they occured in-between our weather recording intervals... More about our weather records

Advertising

Marburg weather history for previous 24 hours

 ConditionsComfort  
Time TempWeatherWind HumidityBarometerVisibility
12:00 AM
Nov 29
36 °FFog.6 mph95%30.01 "Hg4 mi
11:00 PM
Nov 28
37 °FFog.6 mph94%30.00 "Hg4 mi
10:00 PM37 °FFog.5 mph95%29.99 "Hg4 mi
9:00 PM37 °FFog.6 mph95%29.97 "Hg4 mi
8:00 PM37 °FFog.6 mph94%29.97 "Hg4 mi
7:00 PM38 °FFog.7 mph93%29.95 "Hg4 mi
6:00 PM38 °FFog.7 mph94%29.94 "Hg4 mi
5:00 PM38 °FFog.6 mph94%29.93 "Hg4 mi
4:00 PM39 °FFog.7 mph94%29.92 "Hg4 mi
3:00 PM39 °FFog.5 mph94%29.91 "Hg4 mi
2:00 PM39 °FLow clouds.6 mph94%29.90 "Hg5 mi
1:00 PM39 °FLow clouds.6 mph94%29.92 "Hg5 mi
12:00 PM38 °FFog.6 mph94%29.93 "Hg4 mi
11:00 AM38 °FFog.3 mph96%29.94 "Hg4 mi
10:00 AM37 °FFog.3 mph100%29.93 "Hg3 mi
9:00 AM37 °FFog.3 mph100%29.91 "Hg3 mi
8:00 AM36 °FFog.3 mph100%29.91 "Hg2 mi
7:00 AM35 °FFog.3 mph100%29.90 "Hg2 mi
6:00 AM35 °FFog.2 mph100%29.89 "Hg1 mi
5:00 AM36 °FFog.3 mph100%29.89 "Hg2 mi
4:00 AM34 °FOvercast.3 mph100%29.88 "Hg2 mi
3:00 AM33 °FClear.3 mph100%29.88 "Hg0 mi
2:00 AM34 °FClear.3 mph100%29.88 "Hg0 mi
1:00 AM36 °FFog.2 mph100%29.87 "Hg2 mi
Weather by CustomWeather, © 2014

See weather overviewHow to use our weather pages